sat.trackr.live / text

‹ back to catalog

IRIDIUM 107

NORAD 42960 · 2017-061F

PAYLOAD ACTIVE UNKNOWN

§ Identity

Operator
Country
US
Launch date
2017-10-09
Launch site
AFWTR
Launch vehicle
Mass (kg)
RCS (m²)

Purposes: comms

External: N2YO · Heavens-Above · Gunter

§ Orbital elements

Epoch: 2026-09-14T20:49:58.750176Z

Period
100.40 min
Inclination
86.4029°
Eccentricity
0.0002248
Mean motion
14.34217695 rev/d
Perigee alt
776.1 km
Apogee alt
779.3 km
Semi-major
7,155.8 km
B*
2.0569e-5
RAAN
347.7976°
Arg perigee
88.5620°
Mean anomaly
271.5834°
Rev number
46,767

§ Raw data

IRIDIUM 1071 42960U 17061F   26257.86804109  .00000077  00000+0  20569-4 0  99932 42960  86.4029 347.7976 0002248  88.5620 271.5834 14.34217695467672

JSON: /api/v1/satellites/42960 · /tle

For live sub-satellite position, see the globe view (requires WebGL).

§ Visibility from observer

Set your observer location to see the next 7 days of passes ≥ 10°. The values pass through the URL so the page stays shareable.

No JS? Fill the form by hand. The geolocation button needs JavaScript.